Stündliche Wetter Abadan

Heute, 27 Februar, Samstag

Zeit Temperatur Niederschläge Wind Luftdruck Luftfeuchtigkeit
00:00 +17°C° 0 mm 3 m/S 762 mmHg 38%
01:00 +17°C° 0 mm 4 m/S 762 mmHg 38%
02:00 +15°C° 0 mm 4 m/S 762 mmHg 39%
03:00 +15°C° 0 mm 4 m/S 761 mmHg 41%
04:00 +14°C° 0 mm 4 m/S 762 mmHg 41%
05:00 +14°C° 0 mm 4 m/S 762 mmHg 41%
06:00 +13°C° 0 mm 4 m/S 762 mmHg 42%
07:00 +15°C° 0 mm 4 m/S 762 mmHg 37%
08:00 +16°C° 0 mm 5 m/S 763 mmHg 33%
09:00 +19°C° 0 mm 5 m/S 763 mmHg 28%
10:00 +20°C° 0 mm 5 m/S 763 mmHg 24%
11:00 +21°C° 0 mm 5 m/S 763 mmHg 20%
12:00 +23°C° 0 mm 6 m/S 763 mmHg 16%
13:00 +23°C° 0 mm 6 m/S 762 mmHg 15%
14:00 +23°C° 0 mm 6 m/S 762 mmHg 15%
15:00 +23°C° 0 mm 6 m/S 761 mmHg 15%
16:00 +23°C° 0 mm 5 m/S 762 mmHg 16%
17:00 +22°C° 0 mm 4 m/S 762 mmHg 17%
18:00 +21°C° 0 mm 4 m/S 762 mmHg 19%
19:00 +20°C° 0 mm 3 m/S 762 mmHg 20%
20:00 +20°C° 0 mm 3 m/S 762 mmHg 21%
21:00 +19°C° 0 mm 3 m/S 762 mmHg 22%
22:00 +18°C° 0 mm 3 m/S 762 mmHg 24%
23:00 +18°C° 0 mm 3 m/S 762 mmHg 25%

Morgen, 28 Februar, Sonntag

Zeit Temperatur Niederschläge Wind Luftdruck Luftfeuchtigkeit
00:00 +17°C° 0 mm 3 m/S 762 mmHg 26%
01:00 +17°C° 0 mm 3 m/S 762 mmHg 27%
02:00 +16°C° 0 mm 3 m/S 761 mmHg 28%
03:00 +16°C° 0 mm 3 m/S 761 mmHg 29%
04:00 +15°C° 0 mm 2 m/S 761 mmHg 30%
05:00 +15°C° 0 mm 2 m/S 761 mmHg 32%
06:00 +14°C° 0 mm 2 m/S 761 mmHg 33%
07:00 +16°C° 0 mm 2 m/S 762 mmHg 30%
08:00 +17°C° 0 mm 2 m/S 762 mmHg 27%
09:00 +19°C° 0 mm 2 m/S 762 mmHg 24%
10:00 +21°C° 0 mm 1 m/S 762 mmHg 22%
11:00 +22°C° 0 mm 1 m/S 761 mmHg 19%
12:00 +24°C° 0 mm 1 m/S 761 mmHg 16%
13:00 +24°C° 0 mm 1 m/S 761 mmHg 15%
14:00 +24°C° 0 mm 1 m/S 760 mmHg 15%
15:00 +25°C° 0 mm 1 m/S 760 mmHg 14%
16:00 +24°C° 0 mm 2 m/S 760 mmHg 16%
17:00 +24°C° 0 mm 2 m/S 760 mmHg 18%
18:00 +23°C° 0 mm 2 m/S 760 mmHg 20%
19:00 +21°C° 0 mm 2 m/S 760 mmHg 23%
20:00 +20°C° 0 mm 2 m/S 760 mmHg 25%
21:00 +20°C° 0 mm 2 m/S 761 mmHg 28%
22:00 +20°C° 0 mm 2 m/S 761 mmHg 28%
23:00 +20°C° 0 mm 3 m/S 761 mmHg 27%

übermorgen, 1 März, Montag

Zeit Temperatur Niederschläge Wind Luftdruck Luftfeuchtigkeit
00:00 +20°C° 0 mm 3 m/S 760 mmHg 27%
01:00 +20°C° 0 mm 2 m/S 760 mmHg 30%
02:00 +19°C° 0 mm 2 m/S 760 mmHg 33%
03:00 +20°C° 0 mm 1 m/S 759 mmHg 36%
04:00 +19°C° 0 mm 2 m/S 760 mmHg 39%
05:00 +19°C° 0 mm 2 m/S 760 mmHg 42%
06:00 +18°C° 0 mm 2 m/S 760 mmHg 46%
07:00 +19°C° 0 mm 3 m/S 761 mmHg 44%
08:00 +21°C° 0 mm 3 m/S 761 mmHg 41%
09:00 +22°C° 0 mm 3 m/S 761 mmHg 39%
10:00 +22°C° 0.1 mm 4 m/S 762 mmHg 38%
11:00 +23°C° 0.1 mm 5 m/S 762 mmHg 37%
12:00 +25°C° 0.1 mm 5 m/S 762 mmHg 36%
13:00 +25°C° 0 mm 5 m/S 761 mmHg 36%
14:00 +25°C° 0 mm 5 m/S 761 mmHg 36%
15:00 +25°C° 0 mm 5 m/S 760 mmHg 36%
16:00 +23°C° 0 mm 4 m/S 760 mmHg 38%
17:00 +22°C° 0 mm 4 m/S 761 mmHg 41%
18:00 +22°C° 0 mm 4 m/S 761 mmHg 44%
19:00 +21°C° 0 mm 3 m/S 761 mmHg 48%
20:00 +20°C° 0 mm 3 m/S 762 mmHg 52%
21:00 +20°C° 0 mm 2 m/S 762 mmHg 56%
22:00 +19°C° 0 mm 2 m/S 762 mmHg 58%
23:00 +19°C° 0 mm 2 m/S 762 mmHg 60%

2 März, Dienstag

Zeit Temperatur Niederschläge Wind Luftdruck Luftfeuchtigkeit
00:00 +18°C° 0 mm 2 m/S 763 mmHg 62%
01:00 +18°C° 0 mm 2 m/S 762 mmHg 61%
02:00 +18°C° 0 mm 2 m/S 762 mmHg 61%
03:00 +18°C° 0 mm 2 m/S 762 mmHg 61%
04:00 +17°C° 0 mm 2 m/S 762 mmHg 61%
05:00 +17°C° 0 mm 2 m/S 762 mmHg 61%
06:00 +17°C° 0 mm 2 m/S 763 mmHg 62%
07:00 +18°C° 0 mm 2 m/S 763 mmHg 56%
08:00 +20°C° 0 mm 3 m/S 763 mmHg 50%
09:00 +22°C° 0 mm 3 m/S 763 mmHg 43%
10:00 +24°C° 0 mm 3 m/S 763 mmHg 39%
11:00 +25°C° 0 mm 3 m/S 763 mmHg 35%
12:00 +26°C° 0 mm 3 m/S 763 mmHg 31%
13:00 +27°C° 0 mm 3 m/S 762 mmHg 29%
14:00 +27°C° 0 mm 2 m/S 762 mmHg 27%
15:00 +27°C° 0 mm 2 m/S 761 mmHg 25%
16:00 +27°C° 0 mm 2 m/S 761 mmHg 26%
17:00 +26°C° 0 mm 3 m/S 761 mmHg 27%
18:00 +26°C° 0 mm 3 m/S 761 mmHg 28%
19:00 +25°C° 0 mm 3 m/S 762 mmHg 29%
20:00 +24°C° 0 mm 3 m/S 762 mmHg 30%
21:00 +24°C° 0 mm 2 m/S 762 mmHg 31%
22:00 +22°C° 0 mm 3 m/S 762 mmHg 32%
23:00 +22°C° 0 mm 3 m/S 762 mmHg 33%

3 März, Mittwoch

Zeit Temperatur Niederschläge Wind Luftdruck Luftfeuchtigkeit
00:00 +21°C° 0 mm 3 m/S 762 mmHg 35%
01:00 +20°C° 0 mm 3 m/S 762 mmHg 36%
02:00 +20°C° 0 mm 2 m/S 762 mmHg 38%
03:00 +19°C° 0 mm 2 m/S 761 mmHg 40%
04:00 +19°C° 0 mm 2 m/S 761 mmHg 42%
05:00 +18°C° 0 mm 2 m/S 761 mmHg 43%
06:00 +19°C° 0 mm 1 m/S 762 mmHg 45%
07:00 +19°C° 0 mm 2 m/S 762 mmHg 40%
08:00 +21°C° 0 mm 2 m/S 762 mmHg 35%
09:00 +24°C° 0 mm 2 m/S 762 mmHg 30%
10:00 +25°C° 0 mm 2 m/S 762 mmHg 27%
11:00 +26°C° 0 mm 2 m/S 762 mmHg 24%
12:00 +27°C° 0 mm 2 m/S 761 mmHg 21%
13:00 +27°C° 0 mm 2 m/S 761 mmHg 20%
14:00 +28°C° 0 mm 2 m/S 760 mmHg 18%
15:00 +28°C° 0 mm 2 m/S 760 mmHg 17%
16:00 +27°C° 0 mm 2 m/S 760 mmHg 19%
17:00 +27°C° 0 mm 2 m/S 760 mmHg 21%
18:00 +26°C° 0 mm 2 m/S 760 mmHg 24%
19:00 +25°C° 0 mm 2 m/S 760 mmHg 27%
20:00 +24°C° 0 mm 3 m/S 760 mmHg 30%
21:00 +22°C° 0 mm 3 m/S 760 mmHg 34%
22:00 +21°C° 0 mm 3 m/S 760 mmHg 35%
23:00 +21°C° 0 mm 2 m/S 760 mmHg 36%

4 März, Donnerstag

Zeit Temperatur Niederschläge Wind Luftdruck Luftfeuchtigkeit
00:00 +20°C° 0 mm 2 m/S 759 mmHg 36%
01:00 +20°C° 0 mm 2 m/S 759 mmHg 36%
02:00 +20°C° 0 mm 2 m/S 758 mmHg 35%
03:00 +20°C° 0 mm 2 m/S 758 mmHg 34%
04:00 +20°C° 0 mm 3 m/S 758 mmHg 35%
05:00 +20°C° 0 mm 3 m/S 757 mmHg 35%
06:00 +19°C° 0 mm 3 m/S 757 mmHg 35%
07:00 +21°C° 0 mm 4 m/S 757 mmHg 32%
08:00 +22°C° 0 mm 4 m/S 757 mmHg 28%
09:00 +25°C° 0 mm 4 m/S 758 mmHg 25%
10:00 +24°C° 0 mm 6 m/S 757 mmHg 25%
11:00 +24°C° 0 mm 7 m/S 756 mmHg 25%
12:00 +26°C° 0 mm 9 m/S 756 mmHg 26%
13:00 +26°C° 0 mm 8 m/S 756 mmHg 26%
14:00 +27°C° 0 mm 8 m/S 755 mmHg 26%
15:00 +27°C° 0 mm 8 m/S 755 mmHg 26%
16:00 +26°C° 0 mm 8 m/S 756 mmHg 27%
17:00 +24°C° 0 mm 8 m/S 756 mmHg 27%
18:00 +23°C° 0 mm 8 m/S 757 mmHg 28%
19:00 +22°C° 0 mm 7 m/S 758 mmHg 26%
20:00 +21°C° 0 mm 7 m/S 759 mmHg 24%
21:00 +20°C° 0 mm 6 m/S 760 mmHg 22%
22:00 +20°C° 0 mm 6 m/S 760 mmHg 25%
23:00 +19°C° 0 mm 5 m/S 761 mmHg 28%
Mehr zeigen

Wir brauchen deine Erlaubnis

Meteoprog und unser Service Anbieter werden persönliche Daten aufbewahren, so wie Cookies, Geräte Bezeichnung oder ähnliche Technologien von deinem Gerät und Prozess, so wie Persönliche Daten Inhalte und Werbungen, genauso wie social Media und den Verkehr zu analysieren.

  • Aufbewahrung und/oder Zugang zu deiner Geräte Informationen.

    Cookies, Geräte Bezeichnung oder andere Informationen, können aufbewahrt oder Zugang zu deinem Gerät erhalten, für den Grund, der oben angegeben wird.

  • Personalisierte Werbung und Inhalte, Messungen, Einblick in das Publikum und Produkt Entwicklung.

    Werbungen und Inhalte können personalisiert werden, basierend auf ein Profil. Mehr Daten können besser personalisierte Werbungen und Inhalte hinzufügen. Werbung und Inhalte können gezeigt und gemessen werden. Einblicke über das Publikum, welche die Werbung gesehen haben und den Inhalt, können abgeleitet werden. So wie Daten können genutzt werden, um es zu verbessern oder die Benutzer Erfahrung zu verbessern das System und die Software.

Wenn du “Ich stimme zu” klickst, erlaubst du uns, die Cookies zu benutzen die Geräte Bezeichnung, den Web oder ähnliche Technologien zu benutzen. Deine Settings, können in deinem Gerät bei deinem Browser geändert werden.

Für den bestimmten Zweck, berechtigten Interessen beruhen darauf, mehr als auf den Inhalt. Du kannst mehr darüber in unseren Privaten und Cookie Politik lesen.